owner,sensor,date,latitude,longitude,air_pressure(mBar),qcFlag 
TABS,ioos:station:wmo:42045:1,2016-12-01T00:00:00Z,26.2168,-96.4998,1015.09,11111222 
TABS,ioos:station:wmo:42045:1,2016-12-01T00:30:00Z,26.2168,-96.4998,1015.42,11111222 
TABS,ioos:station:wmo:42045:1,2016-12-01T01:00:00Z,26.2168,-96.4998,1015.93,11111222 
TABS,ioos:station:wmo:42045:1,2016-12-01T01:30:00Z,26.2168,-96.4998,1016.13,11111222 
TABS,ioos:station:wmo:42045:1,2016-12-01T02:00:00Z,26.2168,-96.4998,1016.37,11111222 
TABS,ioos:station:wmo:42045:1,2016-12-01T02:30:00Z,26.2168,-96.4998,1016.56,11111222 
TABS,ioos:station:wmo:42045:1,2016-12-01T03:00:00Z,26.2168,-96.4998,1016.73,11111222 
TABS,ioos:station:wmo:42045:1,2016-12-01T03:30:00Z,26.2168,-96.4998,1016.63,11111222 
TABS,ioos:station:wmo:42045:1,2016-12-01T04:00:00Z,26.2168,-96.4998,1017.03,11111222 
TABS,ioos:station:wmo:42045:1,2016-12-01T04:30:00Z,26.2168,-96.4998,1017.11,11111222 
TABS,ioos:station:wmo:42045:1,2016-12-01T05:00:00Z,26.2168,-96.4998,1016.9,11111222 
TABS,ioos:station:wmo:42045:1,2016-12-01T05:30:00Z,26.2168,-96.4998,1017.11,11111222 
TABS,ioos:station:wmo:42045:1,2016-12-01T06:00:00Z,26.2168,-96.4998,1016.95,11111222 
TABS,ioos:station:wmo:42045:1,2016-12-01T06:30:00Z,26.2168,-96.4998,1016.89,11111222 
TABS,ioos:station:wmo:42045:1,2016-12-01T07:00:00Z,26.2168,-96.4998,1016.82,11111222 
TABS,ioos:station:wmo:42045:1,2016-12-01T07:30:00Z,26.2168,-96.4998,1016.55,11111222 
TABS,ioos:station:wmo:42045:1,2016-12-01T08:00:00Z,26.2168,-96.4998,1016.22,11111222 
TABS,ioos:station:wmo:42045:1,2016-12-01T08:30:00Z,26.2168,-96.4998,1016.12,11111222 
TABS,ioos:station:wmo:42045:1,2016-12-01T09:00:00Z,26.2168,-96.4998,1016.38,11111222 
TABS,ioos:station:wmo:42045:1,2016-12-01T09:30:00Z,26.2168,-96.4998,1016.47,11111222 
TABS,ioos:station:wmo:42045:1,2016-12-01T10:00:00Z,26.2168,-96.4998,1016.06,11111222 
TABS,ioos:station:wmo:42045:1,2016-12-01T10:30:00Z,26.2168,-96.4998,1015.94,11111222 
TABS,ioos:station:wmo:42045:1,2016-12-01T11:00:00Z,26.2168,-96.4998,1015.67,11111222 
TABS,ioos:station:wmo:42045:1,2016-12-01T11:30:00Z,26.2168,-96.4998,1015.78,11111222 
TABS,ioos:station:wmo:42045:1,2016-12-01T12:00:00Z,26.2168,-96.4998,1015.76,11111222 
TABS,ioos:station:wmo:42045:1,2016-12-01T12:30:00Z,26.2168,-96.4998,1016.2,11111222 
TABS,ioos:station:wmo:42045:1,2016-12-01T13:00:00Z,26.2168,-96.4998,1016.96,11111222 
TABS,ioos:station:wmo:42045:1,2016-12-01T13:30:00Z,26.2168,-96.4998,1016.97,11111222 
TABS,ioos:station:wmo:42045:1,2016-12-01T14:00:00Z,26.2168,-96.4998,1017.43,11111222 
TABS,ioos:station:wmo:42045:1,2016-12-01T14:30:00Z,26.2168,-96.4998,1017.55,11111222 
TABS,ioos:station:wmo:42045:1,2016-12-01T15:00:00Z,26.2168,-96.4998,1018.02,11111222 
TABS,ioos:station:wmo:42045:1,2016-12-01T15:30:00Z,26.2168,-96.4998,1018.0,11111222 
TABS,ioos:station:wmo:42045:1,2016-12-01T16:00:00Z,26.2168,-96.4998,1018.04,11111222 
TABS,ioos:station:wmo:42045:1,2016-12-01T16:30:00Z,26.2168,-96.4998,1017.77,11111222 
TABS,ioos:station:wmo:42045:1,2016-12-01T17:00:00Z,26.2168,-96.4998,1017.47,11111222 
TABS,ioos:station:wmo:42045:1,2016-12-01T17:30:00Z,26.2168,-96.4998,1017.34,11111222 
TABS,ioos:station:wmo:42045:1,2016-12-01T18:00:00Z,26.2168,-96.4998,1016.8,11111222 
TABS,ioos:station:wmo:42045:1,2016-12-01T18:30:00Z,26.2168,-96.4998,1016.18,11111222 
TABS,ioos:station:wmo:42045:1,2016-12-01T19:00:00Z,26.2168,-96.4998,1015.71,11111222 
TABS,ioos:station:wmo:42045:1,2016-12-01T19:30:00Z,26.2168,-96.4998,1015.37,11111222 
TABS,ioos:station:wmo:42045:1,2016-12-01T20:00:00Z,26.2168,-96.4998,1014.97,11111222 
TABS,ioos:station:wmo:42045:1,2016-12-01T20:30:00Z,26.2168,-96.4998,1014.6,11111222 
TABS,ioos:station:wmo:42045:1,2016-12-01T21:00:00Z,26.2168,-96.4998,1013.76,11111222 
TABS,ioos:station:wmo:42045:1,2016-12-01T21:30:00Z,26.2168,-96.4998,1013.91,11111222 
TABS,ioos:station:wmo:42045:1,2016-12-01T22:00:00Z,26.2168,-96.4998,1014.21,11111222 
TABS,ioos:station:wmo:42045:1,2016-12-01T22:30:00Z,26.2168,-96.4998,1014.26,11111222 
TABS,ioos:station:wmo:42045:1,2016-12-01T23:00:00Z,26.2168,-96.4998,1014.41,11111222 
TABS,ioos:station:wmo:42045:1,2016-12-01T23:30:00Z,26.2168,-96.4998,1014.25,11111222 
TABS,ioos:station:wmo:42045:1,2016-12-02T00:00:00Z,26.2168,-96.4998,1014.44,11111222 
TABS,ioos:station:wmo:42045:1,2016-12-02T00:30:00Z,26.2168,-96.4998,1014.77,11111222 
TABS,ioos:station:wmo:42045:1,2016-12-02T01:00:00Z,26.2168,-96.4998,1014.58,11111222 
TABS,ioos:station:wmo:42045:1,2016-12-02T01:30:00Z,26.2168,-96.4998,1014.48,11111222 
TABS,ioos:station:wmo:42045:1,2016-12-02T02:00:00Z,26.2168,-96.4998,1014.81,11111222 
TABS,ioos:station:wmo:42045:1,2016-12-02T02:30:00Z,26.2168,-96.4998,1014.69,11111222 
TABS,ioos:station:wmo:42045:1,2016-12-02T03:00:00Z,26.2168,-96.4998,1015.0,11111222 
TABS,ioos:station:wmo:42045:1,2016-12-02T03:30:00Z,26.2168,-96.4998,1015.16,11111222 
TABS,ioos:station:wmo:42045:1,2016-12-02T04:00:00Z,26.2168,-96.4998,1015.15,11111222 
TABS,ioos:station:wmo:42045:1,2016-12-02T04:30:00Z,26.2168,-96.4998,1015.08,11111222 
TABS,ioos:station:wmo:42045:1,2016-12-02T05:00:00Z,26.2168,-96.4998,1014.99,11111222 
TABS,ioos:station:wmo:42045:1,2016-12-02T05:30:00Z,26.2168,-96.4998,1014.97,11111222 
TABS,ioos:station:wmo:42045:1,2016-12-02T06:00:00Z,26.2168,-96.4998,1014.57,11111222 
TABS,ioos:station:wmo:42045:1,2016-12-02T06:30:00Z,26.2168,-96.4998,1014.56,11111222 
TABS,ioos:station:wmo:42045:1,2016-12-02T07:00:00Z,26.2168,-96.4998,1014.45,11111222 
TABS,ioos:station:wmo:42045:1,2016-12-02T07:30:00Z,26.2168,-96.4998,1014.1,11111222 
TABS,ioos:station:wmo:42045:1,2016-12-02T08:00:00Z,26.2168,-96.4998,1013.72,11111222 
TABS,ioos:station:wmo:42045:1,2016-12-02T08:30:00Z,26.2168,-96.4998,1013.51,11111222 
TABS,ioos:station:wmo:42045:1,2016-12-02T09:00:00Z,26.2168,-96.4998,1013.45,11111222 
TABS,ioos:station:wmo:42045:1,2016-12-02T09:30:00Z,26.2168,-96.4998,1013.5,11111222 
TABS,ioos:station:wmo:42045:1,2016-12-02T10:00:00Z,26.2168,-96.4998,1013.31,11111222 
TABS,ioos:station:wmo:42045:1,2016-12-02T10:30:00Z,26.2168,-96.4998,1013.21,11111222 
TABS,ioos:station:wmo:42045:1,2016-12-02T11:00:00Z,26.2168,-96.4998,1012.82,11111222 
TABS,ioos:station:wmo:42045:1,2016-12-02T11:30:00Z,26.2168,-96.4998,1012.74,11111222 
TABS,ioos:station:wmo:42045:1,2016-12-02T12:00:00Z,26.2168,-96.4998,1012.77,11111222 
TABS,ioos:station:wmo:42045:1,2016-12-02T12:30:00Z,26.2168,-96.4998,1012.89,11111222 
TABS,ioos:station:wmo:42045:1,2016-12-02T13:00:00Z,26.2168,-96.4998,1013.23,11111222 
TABS,ioos:station:wmo:42045:1,2016-12-02T13:30:00Z,26.2168,-96.4998,1013.47,11111222 
TABS,ioos:station:wmo:42045:1,2016-12-02T14:00:00Z,26.2168,-96.4998,1013.65,11111222 
TABS,ioos:station:wmo:42045:1,2016-12-02T14:30:00Z,26.2168,-96.4998,1013.68,11111222 
TABS,ioos:station:wmo:42045:1,2016-12-02T15:00:00Z,26.2168,-96.4998,1014.06,11111222 
TABS,ioos:station:wmo:42045:1,2016-12-02T15:30:00Z,26.2168,-96.4998,1014.26,11111222 
TABS,ioos:station:wmo:42045:1,2016-12-02T16:00:00Z,26.2168,-96.4998,1014.11,11111222 
TABS,ioos:station:wmo:42045:1,2016-12-02T16:30:00Z,26.2168,-96.4998,1014.19,11111222 
TABS,ioos:station:wmo:42045:1,2016-12-02T17:00:00Z,26.2168,-96.4998,1014.13,11111222 
TABS,ioos:station:wmo:42045:1,2016-12-02T17:30:00Z,26.2168,-96.4998,1013.65,11111222 
TABS,ioos:station:wmo:42045:1,2016-12-02T18:00:00Z,26.2168,-96.4998,1013.02,11111222 
TABS,ioos:station:wmo:42045:1,2016-12-02T18:30:00Z,26.2168,-96.4998,1012.26,11111222 
TABS,ioos:station:wmo:42045:1,2016-12-02T19:00:00Z,26.2168,-96.4998,1011.67,11111222 
TABS,ioos:station:wmo:42045:1,2016-12-02T19:30:00Z,26.2168,-96.4998,1011.46,11111222 
TABS,ioos:station:wmo:42045:1,2016-12-02T20:00:00Z,26.2168,-96.4998,1010.94,11111222 
TABS,ioos:station:wmo:42045:1,2016-12-02T20:30:00Z,26.2168,-96.4998,1011.07,11111222 
TABS,ioos:station:wmo:42045:1,2016-12-02T21:00:00Z,26.2168,-96.4998,1010.78,11111222 
TABS,ioos:station:wmo:42045:1,2016-12-02T21:30:00Z,26.2168,-96.4998,1010.79,11111222 
TABS,ioos:station:wmo:42045:1,2016-12-02T22:00:00Z,26.2168,-96.4998,1010.9,11111222 
TABS,ioos:station:wmo:42045:1,2016-12-02T22:30:00Z,26.2168,-96.4998,1010.8,11111222 
TABS,ioos:station:wmo:42045:1,2016-12-02T23:00:00Z,26.2168,-96.4998,1011.01,11111222 
TABS,ioos:station:wmo:42045:1,2016-12-02T23:30:00Z,26.2168,-96.4998,1010.85,11111222 
TABS,ioos:station:wmo:42045:1,2016-12-03T00:00:00Z,26.2168,-96.4998,1011.04,11111222 
TABS,ioos:station:wmo:42045:1,2016-12-03T00:30:00Z,26.2168,-96.4998,1011.75,11111222 
TABS,ioos:station:wmo:42045:1,2016-12-03T01:00:00Z,26.2168,-96.4998,1011.4,11111222 
TABS,ioos:station:wmo:42045:1,2016-12-03T01:30:00Z,26.2168,-96.4998,1011.75,11111222 
TABS,ioos:station:wmo:42045:1,2016-12-03T02:00:00Z,26.2168,-96.4998,1011.92,11111222 
TABS,ioos:station:wmo:42045:1,2016-12-03T02:30:00Z,26.2168,-96.4998,1012.15,11111222 
TABS,ioos:station:wmo:42045:1,2016-12-03T03:00:00Z,26.2168,-96.4998,1011.8,11111222 
TABS,ioos:station:wmo:42045:1,2016-12-03T03:30:00Z,26.2168,-96.4998,1011.96,11111222 
TABS,ioos:station:wmo:42045:1,2016-12-03T04:00:00Z,26.2168,-96.4998,1012.3,11111222 
TABS,ioos:station:wmo:42045:1,2016-12-03T04:30:00Z,26.2168,-96.4998,1012.11,11111222 
TABS,ioos:station:wmo:42045:1,2016-12-03T05:00:00Z,26.2168,-96.4998,1011.71,11111222 
TABS,ioos:station:wmo:42045:1,2016-12-03T05:30:00Z,26.2168,-96.4998,1011.68,11111222 
TABS,ioos:station:wmo:42045:1,2016-12-03T06:00:00Z,26.2168,-96.4998,1011.33,11111222 
TABS,ioos:station:wmo:42045:1,2016-12-03T06:30:00Z,26.2168,-96.4998,1011.5,11111222 
TABS,ioos:station:wmo:42045:1,2016-12-03T07:00:00Z,26.2168,-96.4998,1011.18,11111222 
TABS,ioos:station:wmo:42045:1,2016-12-03T07:30:00Z,26.2168,-96.4998,1010.75,11111222 
TABS,ioos:station:wmo:42045:1,2016-12-03T08:00:00Z,26.2168,-96.4998,1010.65,11111222 
TABS,ioos:station:wmo:42045:1,2016-12-03T08:30:00Z,26.2168,-96.4998,1010.55,11111222 
TABS,ioos:station:wmo:42045:1,2016-12-03T09:00:00Z,26.2168,-96.4998,1010.45,11111222 
TABS,ioos:station:wmo:42045:1,2016-12-03T09:30:00Z,26.2168,-96.4998,1010.66,11111222 
TABS,ioos:station:wmo:42045:1,2016-12-03T10:00:00Z,26.2168,-96.4998,1010.77,11111222 
TABS,ioos:station:wmo:42045:1,2016-12-03T10:30:00Z,26.2168,-96.4998,1010.81,11111222 
TABS,ioos:station:wmo:42045:1,2016-12-03T11:00:00Z,26.2168,-96.4998,1010.73,11111222 
TABS,ioos:station:wmo:42045:1,2016-12-03T11:30:00Z,26.2168,-96.4998,1010.99,11111222 
TABS,ioos:station:wmo:42045:1,2016-12-03T12:00:00Z,26.2168,-96.4998,1010.5,11111222 
TABS,ioos:station:wmo:42045:1,2016-12-03T12:30:00Z,26.2168,-96.4998,1010.14,11111222 
TABS,ioos:station:wmo:42045:1,2016-12-03T13:00:00Z,26.2168,-96.4998,1010.18,11111222 
TABS,ioos:station:wmo:42045:1,2016-12-03T13:30:00Z,26.2168,-96.4998,1010.42,11111222 
TABS,ioos:station:wmo:42045:1,2016-12-03T14:00:00Z,26.2168,-96.4998,1010.57,11111222 
TABS,ioos:station:wmo:42045:1,2016-12-03T14:30:00Z,26.2168,-96.4998,1010.78,11111222 
TABS,ioos:station:wmo:42045:1,2016-12-03T15:00:00Z,26.2168,-96.4998,1011.0,11111222 
TABS,ioos:station:wmo:42045:1,2016-12-03T15:30:00Z,26.2168,-96.4998,1011.08,11111222 
TABS,ioos:station:wmo:42045:1,2016-12-03T16:00:00Z,26.2168,-96.4998,1010.79,11111222 
TABS,ioos:station:wmo:42045:1,2016-12-03T16:30:00Z,26.2168,-96.4998,1011.13,11111222 
TABS,ioos:station:wmo:42045:1,2016-12-03T17:00:00Z,26.2168,-96.4998,1010.22,11111222 
TABS,ioos:station:wmo:42045:1,2016-12-03T17:30:00Z,26.2168,-96.4998,1009.76,11111222 
TABS,ioos:station:wmo:42045:1,2016-12-03T18:00:00Z,26.2168,-96.4998,1009.48,11111222 
TABS,ioos:station:wmo:42045:1,2016-12-03T18:30:00Z,26.2168,-96.4998,1008.71,11111222 
TABS,ioos:station:wmo:42045:1,2016-12-03T19:00:00Z,26.2168,-96.4998,1008.13,11111222 
TABS,ioos:station:wmo:42045:1,2016-12-03T19:30:00Z,26.2168,-96.4998,1007.67,11111222 
TABS,ioos:station:wmo:42045:1,2016-12-03T20:00:00Z,26.2168,-96.4998,1007.66,11111222 
TABS,ioos:station:wmo:42045:1,2016-12-03T20:30:00Z,26.2168,-96.4998,1007.24,11111222 
TABS,ioos:station:wmo:42045:1,2016-12-03T21:00:00Z,26.2168,-96.4998,1007.31,11111222 
TABS,ioos:station:wmo:42045:1,2016-12-03T21:30:00Z,26.2168,-96.4998,1007.42,11111222 
TABS,ioos:station:wmo:42045:1,2016-12-03T22:00:00Z,26.2168,-96.4998,1007.78,11111222 
TABS,ioos:station:wmo:42045:1,2016-12-03T22:30:00Z,26.2168,-96.4998,1007.53,11111222 
TABS,ioos:station:wmo:42045:1,2016-12-03T23:00:00Z,26.2168,-96.4998,1007.38,11111222 
TABS,ioos:station:wmo:42045:1,2016-12-03T23:30:00Z,26.2168,-96.4998,1007.58,11111222 
TABS,ioos:station:wmo:42045:1,2016-12-04T00:00:00Z,26.2168,-96.4998,1008.43,11111222 
TABS,ioos:station:wmo:42045:1,2016-12-04T00:30:00Z,26.2168,-96.4998,1008.54,11111222 
TABS,ioos:station:wmo:42045:1,2016-12-04T01:00:00Z,26.2168,-96.4998,1008.86,11111222 
TABS,ioos:station:wmo:42045:1,2016-12-04T01:30:00Z,26.2168,-96.4998,1008.65,11111222 
TABS,ioos:station:wmo:42045:1,2016-12-04T02:00:00Z,26.2168,-96.4998,1008.74,11111222 
TABS,ioos:station:wmo:42045:1,2016-12-04T02:30:00Z,26.2168,-96.4998,1008.95,11111222 
TABS,ioos:station:wmo:42045:1,2016-12-04T03:00:00Z,26.2168,-96.4998,1009.06,11111222 
TABS,ioos:station:wmo:42045:1,2016-12-04T03:30:00Z,26.2168,-96.4998,1009.11,11111222 
TABS,ioos:station:wmo:42045:1,2016-12-04T04:00:00Z,26.2168,-96.4998,1008.93,11111222 
TABS,ioos:station:wmo:42045:1,2016-12-04T04:30:00Z,26.2168,-96.4998,1009.21,11111222 
TABS,ioos:station:wmo:42045:1,2016-12-04T05:00:00Z,26.2168,-96.4998,1009.2,11111222 
TABS,ioos:station:wmo:42045:1,2016-12-04T05:30:00Z,26.2168,-96.4998,1009.1,11111222 
TABS,ioos:station:wmo:42045:1,2016-12-04T06:00:00Z,26.2168,-96.4998,1008.66,11111222 
TABS,ioos:station:wmo:42045:1,2016-12-04T06:30:00Z,26.2168,-96.4998,1008.83,11111222 
TABS,ioos:station:wmo:42045:1,2016-12-04T07:00:00Z,26.2168,-96.4998,1008.18,11111222 
TABS,ioos:station:wmo:42045:1,2016-12-04T07:30:00Z,26.2168,-96.4998,1008.67,11111222 
TABS,ioos:station:wmo:42045:1,2016-12-04T08:00:00Z,26.2168,-96.4998,1008.0,11111222 
TABS,ioos:station:wmo:42045:1,2016-12-04T08:30:00Z,26.2168,-96.4998,1008.27,11111222 
TABS,ioos:station:wmo:42045:1,2016-12-04T09:00:00Z,26.2168,-96.4998,1007.96,11111222 
TABS,ioos:station:wmo:42045:1,2016-12-04T09:30:00Z,26.2168,-96.4998,1007.94,11111222 
TABS,ioos:station:wmo:42045:1,2016-12-04T10:00:00Z,26.2168,-96.4998,1007.65,11111222 
TABS,ioos:station:wmo:42045:1,2016-12-04T10:30:00Z,26.2168,-96.4998,1007.83,11111222 
TABS,ioos:station:wmo:42045:1,2016-12-04T11:00:00Z,26.2168,-96.4998,1007.99,11111222 
TABS,ioos:station:wmo:42045:1,2016-12-04T11:30:00Z,26.2168,-96.4998,1007.92,11111222 
TABS,ioos:station:wmo:42045:1,2016-12-04T12:00:00Z,26.2168,-96.4998,1007.59,11111222 
TABS,ioos:station:wmo:42045:1,2016-12-04T12:30:00Z,26.2168,-96.4998,1007.62,11111222 
TABS,ioos:station:wmo:42045:1,2016-12-04T13:00:00Z,26.2168,-96.4998,1007.77,11111222 
TABS,ioos:station:wmo:42045:1,2016-12-04T13:30:00Z,26.2168,-96.4998,1007.73,11111222 
TABS,ioos:station:wmo:42045:1,2016-12-04T14:00:00Z,26.2168,-96.4998,1008.33,11111222 
TABS,ioos:station:wmo:42045:1,2016-12-04T14:30:00Z,26.2168,-96.4998,1008.98,11111222 
TABS,ioos:station:wmo:42045:1,2016-12-04T15:00:00Z,26.2168,-96.4998,1009.15,11111222 
TABS,ioos:station:wmo:42045:1,2016-12-04T15:30:00Z,26.2168,-96.4998,1009.43,11111222 
TABS,ioos:station:wmo:42045:1,2016-12-04T16:00:00Z,26.2168,-96.4998,1009.83,11111222 
TABS,ioos:station:wmo:42045:1,2016-12-04T16:30:00Z,26.2168,-96.4998,1009.73,11111222 
TABS,ioos:station:wmo:42045:1,2016-12-04T17:00:00Z,26.2168,-96.4998,1009.3,11111222 
TABS,ioos:station:wmo:42045:1,2016-12-04T17:30:00Z,26.2168,-96.4998,1009.15,11111222 
TABS,ioos:station:wmo:42045:1,2016-12-04T18:00:00Z,26.2168,-96.4998,1008.95,11111222 
TABS,ioos:station:wmo:42045:1,2016-12-04T18:30:00Z,26.2168,-96.4998,1008.8,11111222 
TABS,ioos:station:wmo:42045:1,2016-12-04T19:00:00Z,26.2168,-96.4998,1009.34,11111222 
TABS,ioos:station:wmo:42045:1,2016-12-04T19:30:00Z,26.2168,-96.4998,1008.05,11111222 
TABS,ioos:station:wmo:42045:1,2016-12-04T20:00:00Z,26.2168,-96.4998,1008.29,11111222 
TABS,ioos:station:wmo:42045:1,2016-12-04T20:30:00Z,26.2168,-96.4998,1008.66,11111222 
TABS,ioos:station:wmo:42045:1,2016-12-04T21:00:00Z,26.2168,-96.4998,1008.42,11111222 
TABS,ioos:station:wmo:42045:1,2016-12-04T21:30:00Z,26.2168,-96.4998,1008.81,11111222 
TABS,ioos:station:wmo:42045:1,2016-12-04T22:00:00Z,26.2168,-96.4998,1008.6,11111222 
TABS,ioos:station:wmo:42045:1,2016-12-04T22:30:00Z,26.2168,-96.4998,1009.05,11111222 
TABS,ioos:station:wmo:42045:1,2016-12-04T23:00:00Z,26.2168,-96.4998,1009.05,11111222 
TABS,ioos:station:wmo:42045:1,2016-12-04T23:30:00Z,26.2168,-96.4998,1008.28,11111222 
TABS,ioos:station:wmo:42045:1,2016-12-05T00:00:00Z,26.2168,-96.4998,1008.43,11111222 
TABS,ioos:station:wmo:42045:1,2016-12-05T00:30:00Z,26.2168,-96.4998,1008.82,11111222 
TABS,ioos:station:wmo:42045:1,2016-12-05T01:00:00Z,26.2168,-96.4998,1009.09,11111222 
TABS,ioos:station:wmo:42045:1,2016-12-05T01:30:00Z,26.2168,-96.4998,1009.23,11111222 
TABS,ioos:station:wmo:42045:1,2016-12-05T02:00:00Z,26.2168,-96.4998,1009.17,11111222 
TABS,ioos:station:wmo:42045:1,2016-12-05T02:30:00Z,26.2168,-96.4998,1009.18,11111222 
TABS,ioos:station:wmo:42045:1,2016-12-05T03:00:00Z,26.2168,-96.4998,1009.62,11111222 
TABS,ioos:station:wmo:42045:1,2016-12-05T03:30:00Z,26.2168,-96.4998,1010.15,11111222 
TABS,ioos:station:wmo:42045:1,2016-12-05T04:00:00Z,26.2168,-96.4998,1009.11,11111222 
TABS,ioos:station:wmo:42045:1,2016-12-05T04:30:00Z,26.2168,-96.4998,1008.83,11111222 
TABS,ioos:station:wmo:42045:1,2016-12-05T05:00:00Z,26.2168,-96.4998,1008.95,11111222 
TABS,ioos:station:wmo:42045:1,2016-12-05T05:30:00Z,26.2168,-96.4998,1008.02,11111222 
TABS,ioos:station:wmo:42045:1,2016-12-05T06:00:00Z,26.2168,-96.4998,1006.77,11111222 
TABS,ioos:station:wmo:42045:1,2016-12-05T06:30:00Z,26.2168,-96.4998,1007.07,11111222 
TABS,ioos:station:wmo:42045:1,2016-12-05T07:00:00Z,26.2168,-96.4998,1006.93,11111222 
TABS,ioos:station:wmo:42045:1,2016-12-05T07:30:00Z,26.2168,-96.4998,1007.73,11111222 
TABS,ioos:station:wmo:42045:1,2016-12-05T08:00:00Z,26.2168,-96.4998,1007.43,11111222 
TABS,ioos:station:wmo:42045:1,2016-12-05T08:30:00Z,26.2168,-96.4998,1007.75,11111222 
TABS,ioos:station:wmo:42045:1,2016-12-05T09:00:00Z,26.2168,-96.4998,1007.64,11111222 
TABS,ioos:station:wmo:42045:1,2016-12-05T09:30:00Z,26.2168,-96.4998,1008.27,11111222 
TABS,ioos:station:wmo:42045:1,2016-12-05T10:00:00Z,26.2168,-96.4998,1008.33,11111222 
TABS,ioos:station:wmo:42045:1,2016-12-05T10:30:00Z,26.2168,-96.4998,1008.27,11111222 
TABS,ioos:station:wmo:42045:1,2016-12-05T11:00:00Z,26.2168,-96.4998,1008.69,11111222 
TABS,ioos:station:wmo:42045:1,2016-12-05T11:30:00Z,26.2168,-96.4998,1008.72,11111222 
TABS,ioos:station:wmo:42045:1,2016-12-05T12:00:00Z,26.2168,-96.4998,1009.1,11111222 
TABS,ioos:station:wmo:42045:1,2016-12-05T12:30:00Z,26.2168,-96.4998,1009.4,11111222 
TABS,ioos:station:wmo:42045:1,2016-12-05T13:00:00Z,26.2168,-96.4998,1009.48,11111222 
TABS,ioos:station:wmo:42045:1,2016-12-05T13:30:00Z,26.2168,-96.4998,1009.81,11111222 
TABS,ioos:station:wmo:42045:1,2016-12-05T14:00:00Z,26.2168,-96.4998,1010.25,11111222 
TABS,ioos:station:wmo:42045:1,2016-12-05T14:30:00Z,26.2168,-96.4998,1010.57,11111222 
TABS,ioos:station:wmo:42045:1,2016-12-05T15:00:00Z,26.2168,-96.4998,1010.86,11111222 
TABS,ioos:station:wmo:42045:1,2016-12-05T15:30:00Z,26.2168,-96.4998,1010.99,11111222 
TABS,ioos:station:wmo:42045:1,2016-12-05T16:00:00Z,26.2168,-96.4998,1010.73,11111222 
TABS,ioos:station:wmo:42045:1,2016-12-05T16:30:00Z,26.2168,-96.4998,1011.56,11111222 
TABS,ioos:station:wmo:42045:1,2016-12-05T17:00:00Z,26.2168,-96.4998,1011.44,11111222 
TABS,ioos:station:wmo:42045:1,2016-12-05T17:30:00Z,26.2168,-96.4998,1010.74,11111222 
TABS,ioos:station:wmo:42045:1,2016-12-05T18:00:00Z,26.2168,-96.4998,1010.66,11111222 
TABS,ioos:station:wmo:42045:1,2016-12-05T18:30:00Z,26.2168,-96.4998,1010.04,11111222 
TABS,ioos:station:wmo:42045:1,2016-12-05T19:00:00Z,26.2168,-96.4998,1009.44,11111222 
TABS,ioos:station:wmo:42045:1,2016-12-05T19:30:00Z,26.2168,-96.4998,1009.33,11111222 
TABS,ioos:station:wmo:42045:1,2016-12-05T20:00:00Z,26.2168,-96.4998,1009.45,11111222 
TABS,ioos:station:wmo:42045:1,2016-12-05T20:30:00Z,26.2168,-96.4998,1009.21,11111222 
TABS,ioos:station:wmo:42045:1,2016-12-05T21:00:00Z,26.2168,-96.4998,1009.36,11111222 
TABS,ioos:station:wmo:42045:1,2016-12-05T21:30:00Z,26.2168,-96.4998,1009.24,11111222 
TABS,ioos:station:wmo:42045:1,2016-12-05T22:00:00Z,26.2168,-96.4998,1009.2,11111222 
TABS,ioos:station:wmo:42045:1,2016-12-05T22:30:00Z,26.2168,-96.4998,1009.43,11111222 
TABS,ioos:station:wmo:42045:1,2016-12-05T23:00:00Z,26.2168,-96.4998,1009.37,11111222 
TABS,ioos:station:wmo:42045:1,2016-12-05T23:30:00Z,26.2168,-96.4998,1009.61,11111222 
TABS,ioos:station:wmo:42045:1,2016-12-06T00:00:00Z,26.2168,-96.4998,1009.73,11111222 
TABS,ioos:station:wmo:42045:1,2016-12-06T00:30:00Z,26.2168,-96.4998,1010.38,11111222 
TABS,ioos:station:wmo:42045:1,2016-12-06T01:00:00Z,26.2168,-96.4998,1010.53,11111222 
TABS,ioos:station:wmo:42045:1,2016-12-06T01:30:00Z,26.2168,-96.4998,1010.77,11111222 
TABS,ioos:station:wmo:42045:1,2016-12-06T02:00:00Z,26.2168,-96.4998,1011.19,11111222 
TABS,ioos:station:wmo:42045:1,2016-12-06T02:30:00Z,26.2168,-96.4998,1011.03,11111222 
TABS,ioos:station:wmo:42045:1,2016-12-06T03:00:00Z,26.2168,-96.4998,1011.19,11111222 
TABS,ioos:station:wmo:42045:1,2016-12-06T03:30:00Z,26.2168,-96.4998,1011.23,11111222 
TABS,ioos:station:wmo:42045:1,2016-12-06T04:00:00Z,26.2168,-96.4998,1011.5,11111222 
TABS,ioos:station:wmo:42045:1,2016-12-06T04:30:00Z,26.2168,-96.4998,1011.62,11111222 
TABS,ioos:station:wmo:42045:1,2016-12-06T05:00:00Z,26.2168,-96.4998,1011.65,11111222 
TABS,ioos:station:wmo:42045:1,2016-12-06T05:30:00Z,26.2168,-96.4998,1011.64,11111222 
TABS,ioos:station:wmo:42045:1,2016-12-06T06:00:00Z,26.2168,-96.4998,1011.57,11111222 
TABS,ioos:station:wmo:42045:1,2016-12-06T06:30:00Z,26.2168,-96.4998,1011.4,11111222 
TABS,ioos:station:wmo:42045:1,2016-12-06T07:00:00Z,26.2168,-96.4998,1011.59,11111222 
TABS,ioos:station:wmo:42045:1,2016-12-06T07:30:00Z,26.2168,-96.4998,1011.45,11111222 
TABS,ioos:station:wmo:42045:1,2016-12-06T08:00:00Z,26.2168,-96.4998,1011.83,11111222 
TABS,ioos:station:wmo:42045:1,2016-12-06T08:30:00Z,26.2168,-96.4998,1011.9,11111222 
TABS,ioos:station:wmo:42045:1,2016-12-06T09:00:00Z,26.2168,-96.4998,1012.23,11111222 
TABS,ioos:station:wmo:42045:1,2016-12-06T09:30:00Z,26.2168,-96.4998,1012.44,11111222 
TABS,ioos:station:wmo:42045:1,2016-12-06T10:00:00Z,26.2168,-96.4998,1012.38,11111222 
TABS,ioos:station:wmo:42045:1,2016-12-06T10:30:00Z,26.2168,-96.4998,1012.02,11111222 
TABS,ioos:station:wmo:42045:1,2016-12-06T11:00:00Z,26.2168,-96.4998,1012.15,11111222 
TABS,ioos:station:wmo:42045:1,2016-12-06T11:30:00Z,26.2168,-96.4998,1012.29,11111222 
TABS,ioos:station:wmo:42045:1,2016-12-06T12:00:00Z,26.2168,-96.4998,1012.47,11111222 
TABS,ioos:station:wmo:42045:1,2016-12-06T12:30:00Z,26.2168,-96.4998,1012.69,11111222 
TABS,ioos:station:wmo:42045:1,2016-12-06T13:00:00Z,26.2168,-96.4998,1013.06,11111222 
TABS,ioos:station:wmo:42045:1,2016-12-06T13:30:00Z,26.2168,-96.4998,1013.42,11111222 
TABS,ioos:station:wmo:42045:1,2016-12-06T14:00:00Z,26.2168,-96.4998,1013.79,11111222 
TABS,ioos:station:wmo:42045:1,2016-12-06T14:30:00Z,26.2168,-96.4998,1014.17,11111222 
TABS,ioos:station:wmo:42045:1,2016-12-06T15:00:00Z,26.2168,-96.4998,1014.66,11111222 
TABS,ioos:station:wmo:42045:1,2016-12-06T15:30:00Z,26.2168,-96.4998,1014.92,11111222 
TABS,ioos:station:wmo:42045:1,2016-12-06T16:00:00Z,26.2168,-96.4998,1015.04,11111222 
TABS,ioos:station:wmo:42045:1,2016-12-06T16:30:00Z,26.2168,-96.4998,1015.01,11111222 
TABS,ioos:station:wmo:42045:1,2016-12-06T17:00:00Z,26.2168,-96.4998,1015.0,11111222 
TABS,ioos:station:wmo:42045:1,2016-12-06T17:30:00Z,26.2168,-96.4998,1014.4,11111222 
TABS,ioos:station:wmo:42045:1,2016-12-06T18:00:00Z,26.2168,-96.4998,1013.87,11111222 
TABS,ioos:station:wmo:42045:1,2016-12-06T18:30:00Z,26.2168,-96.4998,1013.66,11111222 